User: anonymous   Login
Location: Dillon
(41.1766°N, 107.0923°W)
Time: 21:55:12
(UTC+00:00)
Language:

SJ-7 - Orbit

View from above orbital plane
View from above orbital plane
View from above satellite
View from above satellite

Ground track
Ground track

The orbit data is extracted from the following two-line orbital elements,

1 28737U 05024A   24107.94063039  .00012252  00000-0  87956-3 0  9996
2 28737  97.7713 112.9773 0020789 221.7794 138.1845 15.04283622 28352
Epoch (UTC): 16 April 2024 22:34:30
Eccentricity: 0.0020789
inclination: 97.7713°
perigee height: 539 km
apogee height: 568 km
right ascension of ascending node: 112.9773°
argument of perigee: 221.7794°
revolutions per day: 15.04283622
mean anomaly at epoch: 138.1845°
orbit number at epoch: 2835

The dashed part of the orbit path shows where the satellite is in the earth's shadow,  

DLR